This demonstration page uses our WeatherBlox Daily Observations layout. Learn more.

36.17497, -115.13722

Hourly Observations for October 29, 2020

Temp ( °F °C ) Dew Point ( °F °C ) Humidity (%) Winds ( mph kmh ) Pressure ( in mb ) Visibility ( mi km ) Precip ( " mm )
12:53 am 00:53 Clear 58 14.4 23 -5 26 26 Calm 30.09 1019 10 16.0934 0 0
1:53 am 01:53 Clear 57 13.9 21 -6.1 25 25 WNW 6 9 30.1 1019 10 16.0934 0 0
2:53 am 02:53 Clear 54 12.2 20 -6.7 26 26 WNW 7 11 30.1 1019 10 16.0934 0 0
3:53 am 03:53 Clear 59 15 14 -10 17 17 NNW 7 11 30.1 1019 10 16.0934 0 0
4:53 am 04:53 Clear 52 11.1 20 -6.7 28 28 WNW 7 11 30.11 1020 10 16.0934 0 0
5:53 am 05:53 Clear 54 12.2 21 -6.1 28 28 Calm 30.13 1020 10 16.0934 0 0
6:53 am 06:53 Clear 54 12.2 21 -6.1 28 28 W 9 15 30.15 1021 10 16.0934 0 0
7:53 am 07:53 Sunny 58 14.4 17 -8.3 20 20 NNW 9 15 30.17 1022 10 16.0934 0 0
8:53 am 08:53 Sunny 66 18.9 17 -8.3 15 15 NNW 7 11 30.19 1022 10 16.0934 0 0
9:53 am 09:53 Sunny 68 20 18 -7.8 15 15 WSW 3 6 30.19 1022 10 16.0934 0 0
10:53 am 10:53 Sunny 72 22.2 17 -8.3 12 12 Calm 30.18 1022 10 16.0934 0 0
11:53 am 11:53 Sunny 74 23.3 18 -7.8 12 12 ENE 3 6 30.16 1021 10 16.0934 0 0
12:53 pm 12:53 Sunny 76 24.4 19 -7.2 12 12 Calm 30.12 1020 10 16.0934 0 0
1:53 pm 13:53 Sunny 77 25 20 -6.7 12 12 Calm 30.09 1019 10 16.0934 0 0
2:53 pm 14:53 Sunny 79 26.1 20 -6.7 11 11 ENE 3 6 30.06 1018 10 16.0934 0 0
3:53 pm 15:53 Sunny 80 26.7 20 -6.7 10 10 Calm 30.04 1017 10 16.0934 0 0
4:53 pm 16:53 Sunny 79 26.1 20 -6.7 11 11 Calm 30.04 1017 10 16.0934 0 0
5:53 pm 17:53 Clear 77 25 20 -6.7 12 12 Calm 30.04 1017 10 16.0934 0 0
6:53 pm 18:53 Clear 72 22.2 25 -3.9 17 17 W 5 7 30.06 1018 10 16.0934 0 0
7:53 pm 19:53 Clear 67 19.4 27 -2.8 22 22 NNW 7 11 30.06 1018 10 16.0934 0 0
8:53 pm 20:53 Clear 65 18.3 25 -3.9 22 22 WNW 6 9 30.06 1018 10 16.0934 0 0
9:53 pm 21:53 Clear 62 16.7 25 -3.9 24 24 NW 6 9 30.07 1018 10 16.0934 0 0
10:53 pm 22:53 Clear 62 16.7 24 -4.4 23 23 W 5 7 30.07 1018 10 16.0934 0 0
11:53 pm 23:53 Clear 61 16.1 23 -5 23 23 WNW 8 13 30.06 1018 10 16.0934 0 0

Powered by AerisWeather